This is the latest recevied weather packets stored in our database for station/object NK7E-2. If no packets are shown the sender has not sent any weather packets the latest 10 day(s).
| Time | Temp. | Humidity | Pressure | Rain* | Wind** | Luminosity | Snow |
|---|---|---|---|---|---|---|---|
| 1788469216 | 31.67° C | 44% | 1026.6 hPa | 0 mm | - | - | - |
| 1788468616 | 32.22° C | 44% | 1026.8 hPa | 0 mm | - | - | - |
| 1788468016 | 31.67° C | 44% | 1026.7 hPa | 0 mm | - | - | - |
| 1788467416 | 31.67° C | 44% | 1026.7 hPa | 0 mm | - | - | - |
| 1788466816 | 31.11° C | 45% | 1026.7 hPa | 0 mm | - | - | - |
| 1788466216 | 31.11° C | 46% | 1026.9 hPa | 0 mm | - | - | - |
| 1788465620 | 31.11° C | 46% | 1027 hPa | 0 mm | - | - | - |
| 1788465016 | 31.11° C | 46% | 1027.1 hPa | 0 mm | - | - | - |
| 1788464416 | 31.11° C | 47% | 1027.2 hPa | 0 mm | - | - | - |
| 1788463816 | 30.56° C | 48% | 1027.3 hPa | 0 mm | - | - | - |
| 1788463216 | 30.56° C | 49% | 1027.3 hPa | 0 mm | - | - | - |
| 1788462616 | 30° C | 49% | 1027.4 hPa | 0 mm | - | - | - |
| 1788462016 | 30° C | 50% | 1027.9 hPa | 0 mm | - | - | - |
| 1788461416 | 29.44° C | 51% | 1028.3 hPa | 0 mm | - | - | - |
| 1788460815 | 29.44° C | 51% | 1028.3 hPa | 0 mm | - | - | - |
| 1788460215 | 29.44° C | 50% | 1028.3 hPa | 0 mm | - | - | - |
| 1788459615 | 29.44° C | 50% | 1028.6 hPa | 0 mm | - | - | - |
| 1788459015 | 29.44° C | 50% | 1028.8 hPa | 0 mm | - | - | - |
| 1788458417 | 29.44° C | 50% | 1028.7 hPa | 0 mm | - | - | - |
| 1788457817 | 28.89° C | 51% | 1028.7 hPa | 0 mm | - | - | - |
| 1788457218 | 29.44° C | 50% | 1028.8 hPa | 0 mm | - | - | - |
| 1788456617 | 28.89° C | 52% | 1029.1 hPa | 0 mm | - | - | - |
| 1788456017 | 28.89° C | 52% | 1028.8 hPa | 0 mm | - | - | - |
| 1788455417 | 28.33° C | 54% | 1028.6 hPa | 0 mm | - | - | - |
| 1788454817 | 27.78° C | 54% | 1028.7 hPa | 0 mm | - | - | - |
* Rain latest hour (hover to see other rain measurements)
** Current wind speed in m/s (hover to see current wind gust speed)